Miscellaneous Local Product
Issued by NWS North Platte, NE

Home | Current Version | Previous Version | Graphics & Text | Print | Product List | Glossary On
Versions: 1 2 3 4 5 6 7 8 9 10 11 12 13 14 15 16 17 18 19 20 21 22 23 24 25 26 27 28 29 30 31 32 33 34 35 36 37 38 39 40 41 42 43 44 45 46 47 48 49 50
000
AXUS43 KLBF 041910
MISLBF


WESTERN AND NORTH CENTRAL NEBRASKA HOURLY WEATHER ROUNDUP
NATIONAL WEATHER SERVICE NORTH PLATTE NE
200 PM CDT MON MAY 04 2015

***STATIONS NOT REPORTING VARIABLES SUCH AS SKY/WEATHER OR
PRESSURE ARE PROVIDED BY THE NEBRASKA DEPARTMENT OF
ROADS...RAWS...AND APRS NETWORKS...AND ARE NOT UNDER
NATIONAL WEATHER SERVICE QUALITY CONTROL***

...OBSERVATIONS IN AND NEAR THE EASTERN PANHANDLE OF NEBRASKA...

CITY           SKY/WX    TMP DP  RH WIND       PRES   REMARKS
PINE RIDGE     LGT RAIN  52  37  56 E12       30.19F
CHADRON        CLOUDY    52  39  61 E8        30.18F
ALLIANCE       CLOUDY    55  33  43 E13       30.16F
SIDNEY         CLOUDY    60  41  49 NE13G20   30.14F
WHITECLAY        N/A     49  33  53 E8          N/A
CRESCENT LAKE    N/A     58  31  36 E7G16       N/A
BIG SPRINGS      N/A     58  37  45 E12         N/A
$$

...OBSERVATIONS IN NORTH CENTRAL NEBRASKA...

CITY           SKY/WX    TMP DP  RH WIND       PRES   REMARKS
VALENTINE      LGT RAIN  66  24  20 E17       30.18F
THEDFORD       CLOUDY    64  29  27 E17       30.15F
AINSWORTH      CLOUDY    66  26  21 NE10G17   30.16F
O`NEILL        CLOUDY    65  31  28 E13       30.15F
ORD            CLOUDY    65  36  34 E15G23    30.11F
BROKEN BOW     CLOUDY    63  29  27 NE20      30.12F
BROWNLEE         N/A     65  25  22 NE16        N/A
VALENTINE NWR    N/A     60  24  25 E13         N/A
SPRINGVIEW       N/A     68  24  19 E9G18       N/A
HALSEY           N/A     64  27  24 E9G17       N/A
BREWSTER         N/A     64  27  24 E18         N/A
ROSE             N/A     64  30  28 NE17        N/A
NEWPORT          N/A     68  31  25 E12         N/A
SARGENT          N/A     62  31  31 NE7G17      N/A
COMSTOCK         N/A     67  42  40 E14         N/A
EWING            N/A     65  38  36 NE8G18      N/A
$$

...OBSERVATIONS IN SOUTHWEST NEBRASKA AND FAR NORTHEAST COLORADO...

CITY           SKY/WX    TMP DP  RH WIND       PRES   REMARKS
WRAY           CLOUDY    51  46  83 NE8       30.14S
IMPERIAL       LGT RAIN  53  46  77 NE6       30.14R
OGALLALA       CLOUDY    58  34  40 E13       30.15R
NORTH PLATTE   CLOUDY    54  39  57 E20       30.14R
MCCOOK         CLOUDY    58  42  55 NE17      30.11F
LEXINGTON      LGT RAIN  53  47  82 NE13      30.13S
PAXTON           N/A     59  35  40 E10         N/A
SUTHERLAND       N/A     54  29  38 E12         N/A
GOTHENBURG       N/A     48  42  79 NE6         N/A
CALLAWAY         N/A     57  36  45 E12         N/A
$$

...NORTH PLATTE AREA...

CITY           SKY/WX    TMP DP  RH WIND       PRES   REMARKS
AIRPORT        CLOUDY    54  39  57 E20       30.14R
DOWNTOWN         N/A     54  38  55 E6G13       N/A
$$

...SOME WEATHER OBSERVATIONS FROM AROUND THE REGION...

CITY           SKY/WX    TMP DP  RH WIND       PRES   REMARKS
DENVER         PTSUNNY   57  49  74 NE9       30.11F
LARAMIE        PTSUNNY   52  41  66 SE22      30.10F
CHEYENNE       CLOUDY    52  41  66 S12       30.14F
SCOTTSBLUFF    CLOUDY    55  35  47 E13       30.15F
RAPID CITY     CLOUDY    50  39  66 SE5       30.21F
PIERRE         CLOUDY    63  22  20 E12       30.20F
WINNER         PTSUNNY   68  19  15 NE18      30.18F
SIOUX FALLS    PTSUNNY   71  30  21 E10       30.15F
OMAHA          LGT RAIN  66  57  72 N7        30.07F
GRAND ISLAND   RAIN      53  50  89 NE12      30.11S FOG
KANSAS CITY    CLOUDY    78  62  57 CALM      30.04F
WICHITA        PTSUNNY   83  60  45 S20       30.01F
HAYS           PTSUNNY   72  52  49 NW3       30.04R
LIBERAL        PTSUNNY   75  54  46 SE10      30.03F
GOODLAND       CLOUDY    61  47  59 NE10      30.12S
$$



USA.gov is the U.S. government's official web portal to all federal, state and local government web resources and services.